Wind_Speed
20 18 16 17 17 17 17 16 16 15 14 13 11 11 12 12 13 14 15 14 12 11 12 12 11 11 11 12 14 16 19 20 19 18 17 16 15 14 12 12 10 9 8 6
19 17 18 19 18 18 18 17 16 16 16 15 13 12 12 13 13 14 15 14 12 11 11 11 11 11 11 13 13 16 17 20 20 19 18 17 16 14 13 12 11 9 8 7
18 18 20 19 19 19 19 18 17 17 18 17 15 13 12 13 14 15 15 15 13 12 10 10 9 9 10 13 14 15 17 20 20 20 20 18 17 15 14 12 11 9 8 7
19 20 21 20 19 20 20 19 19 19 18 17 16 14 12 12 13 15 16 15 13 13 12 10 9 9 10 12 14 17 19 20 21 21 21 20 18 16 15 14 12 10 9 8
20 21 21 21 20 20 20 21 20 20 20 19 17 16 11 12 13 15 15 15 14 13 12 11 10 9 10 11 12 15 18 20 22 22 21 20 18 17 16 14 13 11 9 9
21 22 22 21 21 21 21 22 22 21 21 19 17 17 12 12 12 13 14 14 13 12 11 10 9 9 10 11 13 15 17 19 21 21 21 20 19 18 16 14 13 12 10 10
21 22 22 22 22 22 22 22 22 22 21 20 18 17 13 12 13 13 12 12 12 11 10 9 8 9 9 11 14 17 18 20 21 21 21 20 19 18 16 14 13 12 11 10
21 21 21 21 22 22 23 22 23 23 22 19 17 16 12 12 12 12 12 11 11 10 9 8 7 7 9 11 15 17 18 20 21 22 22 20 19 17 16 15 13 12 12 11
19 20 21 21 22 23 23 24 24 24 22 20 17 14 11 12 12 12 12 11 10 10 8 8 8 8 9 11 15 16 18 20 21 22 21 20 18 17 16 15 14 13 12 11
19 20 21 21 22 23 24 23 23 23 23 21 16 13 11 11 12 12 11 10 9 8 7 8 8 8 9 12 15 17 17 19 21 21 20 20 18 17 16 15 15 14 13 12
20 20 21 22 23 23 23 24 24 24 23 21 18 13 12 12 12 12 11 10 9 8 7 7 8 8 10 12 14 16 17 19 19 20 20 19 19 18 16 15 15 14 13 12
21 22 22 23 24 24 26 25 25 24 22 22 19 13 13 13 12 11 11 10 9 9 8 9 9 9 10 12 13 15 16 17 18 19 19 19 19 18 17 15 15 14 13 13
24 24 24 25 25 26 27 27 26 26 25 23 20 15 14 12 11 11 11 11 10 10 10 10 10 10 11 12 14 15 15 17 18 18 19 19 18 18 17 16 15 15 14 14
26 27 26 26 26 27 27 27 26 26 26 24 21 17 15 14 13 12 12 12 11 11 12 12 12 12 13 13 14 15 15 16 17 18 19 19 19 18 17 16 16 15 15 15
27 27 27 26 26 26 26 26 26 26 26 24 21 18 16 16 15 15 14 13 12 13 13 14 14 14 14 14 15 15 15 15 15 16 18 19 20 19 18 17 17 17 16 17
28 28 28 27 27 26 26 25 26 26 25 23 21 18 17 17 16 16 16 15 14 14 15 16 16 15 16 16 16 16 15 15 16 17 17 18 18 19 19 18 18 18 17 17
27 27 27 27 27 27 26 24 26 25 24 23 21 19 19 18 18 17 17 16 16 16 16 16 17 17 17 17 17 17 16 16 16 17 17 17 17 17 17 17 17 17 18 18
25 26 26 26 26 27 24 23 24 24 23 23 21 20 19 19 18 18 17 17 17 18 18 19 18 18 19 18 18 18 17 17 17 17 17 17 17 17 17 18 18 18 19 19
23 23 24 24 25 26 24 23 23 23 23 22 21 20 20 19 19 18 17 18 18 18 20 20 20 19 20 19 18 18 17 17 18 18 19 19 19 19 19 20 20 20 21 21
23 23 23 23 23 24 21 21 22 22 21 21 20 20 20 20 19 18 18 18 18 18 20 20 20 20 20 19 19 18 18 18 18 19 19 20 20 21 21 21 21 22 22 23
22 22 22 22 22 21 20 20 20 21 19 19 19 20 20 20 19 20 19 19 19 19 20 20 20 20 20 19 19 19 19 19 20 21 21 21 22 22 23 23 23 23 24 24
20 20 20 20 20 19 19 20 20 19 19 18 18 19 20 20 20 21 20 20 20 20 20 20 21 21 21 20 20 20 20 21 21 21 22 22 23 24 24 24 25 25 25 26
20 19 19 19 19 18 18 18 18 18 18 18 19 19 20 20 21 21 21 22 22 21 21 22 22 22 21 21 21 21 22 23 22 22 23 23 24 25 26 26 27 26 27 28
18 19 19 18 17 18 18 18 16 17 18 18 19 19 19 20 21 22 23 23 23 22 21 22 22 22 22 22 22 22 23 24 25 24 24 25 26 25 26 27 27 27 28 29
17 18 18 18 17 16 17 17 17 18 18 18 18 19 20 20 20 21 22 22 23 23 22 22 22 22 23 23 23 23 24 24 25 24 24 25 25 26 26 27 29 30 30 31
17 17 16 16 15 15 15 16 16 17 17 18 18 19 20 21 21 22 23 23 23 24 23 23 23 23 23 24 24 24 24 25 26 26 26 27 28 28 29 29 30 31 31 31
Wind_Direction
258 253 249 245 243 243 245 245 243 243 250 259 269 279 286 295 302 304 306 311 310 303 294 282 273 269 260 234 218 211 209 205 203 202 205 208 209 211 211 208 203 203 201 200
249 243 240 240 240 242 242 240 237 241 249 259 267 275 284 292 297 302 304 309 309 300 292 284 275 269 249 232 220 217 210 204 202 203 205 207 207 206 201 198 198 194 195 194
243 235 237 237 239 240 239 238 239 245 253 261 269 271 278 289 294 299 303 307 306 296 289 280 275 265 246 232 223 215 210 208 206 203 202 203 201 201 198 196 193 190 190 191
235 232 234 235 236 240 237 240 243 250 258 263 270 272 277 286 294 298 300 302 301 294 289 275 270 261 246 233 222 212 209 205 202 200 199 200 198 198 195 192 190 185 185 188
231 229 232 232 233 238 237 240 244 251 259 266 272 278 282 287 292 296 296 294 293 294 285 273 266 255 240 229 213 205 203 202 200 197 195 195 195 194 191 187 186 187 190 189
228 229 231 231 232 236 237 239 245 252 261 266 275 283 289 291 292 293 291 288 288 291 288 279 257 245 234 219 203 198 197 193 192 191 191 191 188 188 187 188 190 192 195 193
229 228 229 229 231 236 239 242 247 253 261 270 277 282 292 289 288 291 291 286 281 283 287 277 250 238 227 212 199 194 193 188 186 188 188 186 185 187 190 194 193 195 198 198
229 228 231 231 233 237 240 244 249 257 262 270 276 281 292 286 284 288 289 285 278 277 276 264 249 233 215 202 195 192 188 185 186 187 187 186 187 190 193 195 194 197 200 201
231 226 230 233 235 238 241 244 251 259 265 271 278 283 287 285 284 287 288 285 282 269 257 241 235 223 203 192 191 188 186 186 187 187 188 188 189 192 193 196 200 204 206 206
235 230 228 233 237 240 243 247 252 258 266 270 274 280 287 285 283 286 283 282 278 259 241 232 224 212 195 184 183 183 182 184 185 186 188 190 192 193 198 203 206 208 208 212
239 238 233 235 239 243 245 249 254 259 264 270 270 277 281 282 281 282 279 275 264 250 239 223 213 197 188 183 184 186 186 187 189 191 192 194 197 200 203 206 209 212 217 223
244 244 241 240 242 244 245 249 253 259 264 266 269 271 273 273 275 269 268 267 258 244 231 217 208 199 190 187 186 189 190 192 194 196 198 199 204 207 211 212 215 220 227 234
247 249 247 245 245 246 248 251 254 258 261 264 266 266 267 261 262 258 260 259 254 239 229 219 212 206 198 192 192 194 194 197 199 200 202 205 209 211 214 218 223 229 236 240
251 252 251 250 250 251 252 254 255 256 258 261 262 259 255 254 252 252 253 250 244 235 228 222 217 211 203 198 195 195 197 200 202 204 207 210 212 214 219 224 230 236 239 244
254 253 252 251 250 252 254 254 254 255 256 258 258 254 248 253 251 250 250 247 240 233 227 224 218 213 208 205 202 200 203 204 205 208 211 214 216 219 223 229 234 239 243 248
255 255 254 253 252 252 253 252 253 254 253 254 253 251 245 246 248 246 248 244 237 231 225 222 219 216 211 210 210 210 211 212 214 216 217 218 220 225 229 234 239 242 246 251
255 255 255 255 253 252 251 252 253 254 252 251 250 246 244 244 244 245 244 239 234 230 224 219 218 216 214 215 215 215 215 216 218 220 222 223 226 229 232 237 242 245 249 253
253 253 253 252 251 252 252 252 253 253 251 248 247 244 243 241 241 242 241 236 232 229 223 219 218 217 217 217 218 218 218 220 223 226 227 229 231 233 237 241 245 248 252 257
249 252 252 252 252 252 252 253 253 251 248 245 243 239 237 235 233 234 233 230 230 229 224 221 221 221 220 220 220 220 222 224 228 231 233 234 236 239 242 246 250 254 258 261
249 251 252 252 252 252 251 252 250 249 245 240 237 233 233 229 227 225 224 225 227 226 222 223 225 226 226 225 224 225 229 231 233 235 235 238 241 244 247 251 254 259 262 265
246 248 249 251 253 251 248 248 246 245 239 235 233 230 226 223 224 223 222 222 224 223 224 227 228 229 230 230 230 230 233 236 238 239 241 244 247 249 252 255 259 262 265 268
244 246 246 247 250 250 245 246 245 240 231 228 228 225 222 223 225 223 222 221 221 223 227 230 232 233 233 234 235 235 237 239 242 246 248 251 252 254 256 259 260 263 266 269
241 242 244 246 248 249 247 245 245 236 226 224 225 224 222 221 220 220 221 223 223 224 226 228 231 233 234 237 240 240 241 243 247 250 252 254 256 257 259 261 262 264 268 269
236 238 239 241 244 247 247 244 240 231 226 224 224 221 220 219 221 223 223 225 226 226 227 229 232 235 236 239 242 243 244 247 250 253 255 256 260 263 263 262 265 269 272 273
233 235 237 238 237 241 243 239 236 230 226 225 224 222 219 217 219 220 222 225 229 228 229 233 236 237 238 239 242 244 247 250 252 255 259 261 262 265 267 267 269 271 272 273
234 237 235 233 233 238 238 235 229 224 222 223 221 219 217 218 222 224 226 228 232 230 234 238 239 240 240 242 245 247 248 252 254 257 260 263 265 267 269 271 273 274 275 275
Height
5826 5829 5830 5830 5831 5832 5833 5835 5836 5837 5837 5837 5837 5837 5836 5835 5834 5833 5831 5829 5827 5825 5825 5824 5824 5824 5825 5827 5829 5832 5835 5839 5842 5846 5849 5852 5855 5858 5860 5862 5863 5865 5866 5868
5823 5824 5825 5825 5827 5829 5830 5832 5833 5834 5833 5834 5834 5834 5834 5833 5831 5830 5828 5827 5825 5823 5823 5822 5821 5821 5822 5823 5826 5829 5832 5836 5839 5843 5847 5850 5853 5856 5858 5860 5862 5864 5865 5867
5818 5820 5820 5822 5823 5825 5827 5828 5829 5830 5830 5830 5831 5832 5831 5830 5829 5828 5826 5824 5822 5821 5821 5820 5819 5819 5819 5821 5823 5826 5829 5833 5837 5840 5844 5847 5851 5854 5857 5859 5861 5863 5865 5866
5813 5814 5816 5818 5820 5822 5824 5825 5826 5826 5827 5827 5828 5828 5829 5828 5827 5825 5823 5822 5820 5819 5818 5817 5817 5818 5817 5818 5820 5822 5826 5830 5834 5837 5841 5845 5849 5852 5855 5858 5860 5862 5864 5865
5809 5810 5812 5814 5817 5818 5821 5822 5822 5823 5823 5824 5825 5825 5827 5825 5824 5822 5821 5819 5818 5817 5815 5815 5815 5816 5816 5816 5817 5819 5822 5827 5831 5835 5839 5843 5847 5851 5854 5856 5859 5861 5863 5865
5804 5806 5808 5811 5813 5815 5817 5818 5819 5819 5820 5822 5823 5822 5823 5822 5820 5819 5818 5817 5816 5815 5813 5812 5812 5813 5813 5814 5815 5817 5820 5825 5829 5833 5837 5841 5846 5849 5852 5855 5857 5860 5862 5864
5800 5802 5804 5807 5809 5811 5813 5815 5816 5816 5817 5819 5819 5819 5820 5818 5817 5816 5815 5814 5813 5813 5812 5810 5810 5811 5811 5812 5814 5817 5820 5824 5828 5833 5837 5840 5844 5848 5851 5854 5856 5859 5861 5863
5796 5799 5801 5803 5806 5808 5809 5811 5813 5813 5814 5816 5816 5816 5818 5816 5814 5813 5813 5812 5811 5811 5810 5810 5809 5809 5809 5811 5814 5816 5819 5823 5828 5832 5836 5840 5843 5847 5850 5853 5855 5858 5860 5862
5792 5795 5797 5799 5802 5804 5805 5807 5809 5810 5810 5812 5813 5814 5814 5813 5812 5811 5810 5810 5809 5809 5809 5809 5809 5808 5809 5810 5813 5816 5819 5823 5827 5831 5835 5838 5842 5845 5848 5851 5854 5856 5859 5860
5788 5791 5793 5795 5797 5799 5801 5803 5805 5806 5806 5807 5809 5810 5811 5810 5809 5809 5808 5808 5807 5807 5808 5808 5808 5808 5809 5810 5813 5816 5819 5823 5827 5830 5834 5837 5841 5844 5847 5850 5853 5855 5857 5858
5783 5786 5788 5790 5792 5794 5796 5798 5799 5801 5803 5804 5805 5809 5808 5807 5806 5806 5806 5806 5806 5806 5807 5807 5808 5808 5809 5811 5813 5816 5819 5823 5826 5829 5833 5836 5840 5843 5846 5849 5851 5853 5855 5857
5778 5780 5782 5785 5787 5788 5790 5793 5795 5797 5798 5799 5801 5806 5804 5804 5803 5803 5804 5804 5805 5805 5806 5806 5807 5808 5810 5811 5814 5816 5819 5822 5825 5828 5832 5835 5838 5841 5844 5847 5849 5851 5853 5854
5773 5775 5777 5779 5783 5784 5785 5787 5789 5791 5793 5794 5796 5802 5800 5800 5800 5800 5801 5802 5803 5804 5805 5806 5807 5808 5810 5811 5814 5816 5819 5821 5824 5827 5830 5834 5837 5839 5842 5845 5847 5848 5850 5851
5768 5769 5772 5774 5776 5777 5779 5781 5784 5786 5787 5789 5791 5794 5796 5796 5797 5798 5799 5799 5800 5802 5803 5805 5806 5808 5809 5811 5813 5815 5818 5820 5823 5826 5829 5832 5835 5837 5840 5842 5844 5845 5847 5848
5761 5763 5765 5767 5769 5771 5773 5775 5777 5779 5781 5783 5786 5788 5791 5792 5793 5795 5796 5796 5798 5799 5801 5803 5805 5806 5808 5810 5813 5815 5817 5819 5822 5824 5827 5829 5832 5835 5837 5839 5840 5842 5843 5845
5755 5757 5759 5761 5763 5764 5766 5769 5771 5773 5775 5777 5780 5783 5786 5787 5789 5790 5792 5793 5795 5796 5798 5800 5803 5805 5807 5809 5811 5814 5816 5818 5820 5823 5825 5827 5829 5831 5833 5835 5837 5838 5840 5841
5748 5750 5752 5754 5756 5757 5760 5763 5764 5767 5769 5771 5773 5778 5780 5782 5784 5785 5787 5789 5791 5793 5795 5798 5800 5802 5805 5807 5809 5811 5813 5815 5818 5820 5822 5824 5826 5828 5830 5831 5833 5834 5836 5837
5742 5743 5745 5748 5750 5751 5757 5757 5758 5760 5762 5765 5768 5771 5774 5777 5779 5781 5783 5785 5787 5789 5792 5795 5797 5800 5802 5804 5806 5808 5810 5813 5815 5817 5819 5821 5822 5824 5826 5828 5829 5830 5831 5832
5736 5738 5739 5741 5743 5745 5749 5751 5752 5754 5756 5759 5762 5766 5769 5771 5774 5777 5779 5781 5783 5785 5788 5791 5793 5796 5798 5800 5803 5805 5807 5809 5811 5813 5815 5817 5819 5820 5822 5823 5824 5825 5826 5827
5731 5733 5734 5735 5737 5739 5744 5744 5745 5749 5751 5754 5756 5760 5763 5767 5770 5773 5775 5777 5779 5781 5784 5787 5790 5792 5795 5797 5799 5801 5803 5805 5807 5809 5811 5812 5814 5816 5817 5818 5819 5820 5820 5821
5725 5727 5728 5730 5731 5733 5737 5738 5740 5744 5747 5749 5751 5754 5758 5761 5765 5768 5770 5773 5776 5778 5781 5783 5786 5789 5791 5794 5796 5798 5800 5801 5803 5804 5806 5808 5809 5810 5811 5812 5813 5814 5814 5814
5719 5721 5723 5724 5726 5730 5731 5732 5734 5737 5740 5743 5746 5749 5753 5757 5760 5763 5766 5768 5771 5774 5777 5779 5782 5785 5787 5790 5792 5794 5795 5797 5798 5799 5801 5803 5803 5804 5805 5806 5807 5807 5808 5808
5714 5716 5718 5720 5723 5724 5725 5726 5728 5731 5734 5738 5741 5744 5748 5751 5755 5758 5761 5764 5767 5770 5772 5775 5777 5780 5783 5785 5787 5789 5791 5792 5793 5795 5796 5797 5797 5798 5798 5798 5799 5800 5800 5800
5709 5711 5713 5715 5717 5718 5720 5722 5724 5726 5729 5733 5736 5740 5743 5746 5750 5753 5757 5760 5762 5765 5767 5770 5773 5775 5778 5780 5782 5784 5785 5786 5788 5789 5790 5791 5791 5791 5791 5792 5792 5792 5792 5792
5704 5706 5708 5710 5712 5714 5715 5717 5719 5722 5724 5727 5731 5735 5738 5742 5745 5748 5751 5754 5757 5759 5762 5765 5767 5770 5772 5774 5776 5778 5779 5780 5782 5783 5784 5784 5784 5784 5784 5784 5784 5784 5784 5783
5700 5702 5704 5706 5708 5710 5711 5713 5715 5717 5719 5723 5726 5730 5733 5737 5740 5743 5746 5749 5752 5754 5757 5759 5761 5763 5765 5768 5770 5771 5773 5774 5775 5776 5777 5777 5777 5777 5776 5776 5775 5775 5775 5774